This is the latest recevied weather packets stored in our database for station/object KC8YYF. If no packets are shown the sender has not sent any weather packets the latest 10 day(s).
| Time | Temp. | Humidity | Pressure | Rain* | Wind** | Luminosity | Snow |
|---|---|---|---|---|---|---|---|
| 1777394884 | 18.89° C | 85% | 1014.4 hPa | 0 mm | - | 100 W/m² | - |
| 1777394579 | 19.44° C | 84% | 1014.2 hPa | 0 mm | - | 115 W/m² | - |
| 1777394276 | 18.33° C | 87% | 1014.5 hPa | 0 mm | - | 137 W/m² | - |
| 1777393972 | 17.78° C | 89% | 1014.4 hPa | 0 mm | - | 50 W/m² | - |
| 1777393671 | 17.78° C | 89% | 1014.4 hPa | 0 mm | - | 57 W/m² | - |
| 1777393367 | 17.78° C | 88% | 1014.4 hPa | 0 mm | - | 57 W/m² | - |
| 1777393063 | 17.78° C | 88% | 1014.2 hPa | 0 mm | - | 108 W/m² | - |
| 1777392759 | 17.78° C | 87% | 1014.1 hPa | 0 mm | - | 92 W/m² | - |
| 1777392455 | 17.78° C | 86% | 1014.5 hPa | 0 mm | - | 214 W/m² | - |
| 1777392151 | 18.33° C | 87% | 1014.4 hPa | 0 mm | - | 108 W/m² | - |
| 1777391847 | 17.78° C | 89% | 1014.3 hPa | 0 mm | - | 161 W/m² | - |
| 1777391542 | 17.22° C | 90% | 1014.7 hPa | 0 mm | - | 125 W/m² | - |
| 1777391238 | 17.22° C | 91% | 1014.5 hPa | 0 mm | - | 93 W/m² | - |
| 1777390935 | 16.67° C | 92% | 1014.4 hPa | 0 mm | - | 87 W/m² | - |
| 1777390631 | 16.67° C | 92% | 1014.5 hPa | 0 mm | - | 290 W/m² | - |
| 1777390328 | 16.11° C | 92% | 1014.5 hPa | 0 mm | - | 75 W/m² | - |
| 1777390024 | 15.56° C | 92% | 1014.5 hPa | 0 mm | - | 97 W/m² | - |
| 1777389721 | 15.56° C | 93% | 1014.5 hPa | 0 mm | - | 106 W/m² | - |
| 1777389417 | 15.56° C | 94% | 1014.3 hPa | 0 mm | - | 82 W/m² | - |
| 1777389115 | 15.56° C | 94% | 1014.6 hPa | 0 mm | - | 83 W/m² | - |
| 1777388812 | 15° C | 94% | 1014.6 hPa | 0 mm | - | 113 W/m² | - |
| 1777388510 | 15° C | 95% | 1014.3 hPa | 0 mm | - | 87 W/m² | - |
| 1777388204 | 15° C | 95% | 1014.3 hPa | 0 mm | - | 97 W/m² | - |
| 1777387900 | 14.44° C | 95% | 1014.5 hPa | 0 mm | - | 61 W/m² | - |
| 1777387597 | 14.44° C | 95% | 1014.6 hPa | 0 mm | - | 66 W/m² | - |
* Rain latest hour (hover to see other rain measurements)
** Current wind speed in m/s (hover to see current wind gust speed)